Date String (YYYY-MM-DD hh:mm:ss) UTC,Instrument flags,Ambient pressure (hPa),Sample flow (lpm),Bypass flow (lpm),Sample temperature (°C),Ambient temperature (°C),ASC tube jacket temperature (°C),LED temperature (°C),Box temperature (°C),Sample RH (%),Span deviation,Mass concentration (μg/m³),Mass concentration (μg/m³),Mass concentration (μg/m³)
DateTimeUTC,F1_M11,P_M11,Q1_M11,Q2_M11,T1_M11,T2_M11,T3_M11,T4_M11,T5_M11,U1_M11,ZSPAN_M11,X0_M11,X2_M11,X1_M11
2021-12-17 03:00:00,,0818.2,5.00,0.00,24.9,24.0,00.0,33.9,26.6,06.6,0000.0,0015.85,0003.89,0001.82
2021-12-17 03:01:00,,0818.2,5.00,0.00,24.9,23.9,00.0,33.9,26.6,06.6,0000.0,0015.76,0003.83,0001.83
2021-12-17 03:02:00,,0818.2,5.00,0.00,24.9,23.9,00.0,33.9,26.6,06.6,0000.0,0015.86,0003.86,0001.81
2021-12-17 03:03:00,,0818.2,5.01,0.00,24.9,23.9,00.0,33.9,26.6,06.6,0000.0,0016.07,0003.84,0001.80
2021-12-17 03:04:00,,0818.2,4.99,0.00,24.9,23.9,00.0,33.9,26.7,06.6,0000.0,0015.61,0003.78,0001.80
2021-12-17 03:05:00,,0818.2,5.01,0.00,24.9,23.9,00.0,33.9,26.7,06.6,0000.0,0015.42,0003.73,0001.78
2021-12-17 03:06:00,,0818.3,5.01,0.00,24.9,23.9,00.0,33.9,26.7,06.6,0000.0,0015.81,0003.77,0001.76
2021-12-17 03:07:00,,0818.3,5.00,0.00,24.9,23.9,00.0,33.9,26.7,06.6,0000.0,0016.02,0003.78,0001.74
2021-12-17 03:08:00,,0818.3,4.99,0.00,24.9,23.9,00.0,33.9,26.7,06.5,0000.0,0015.78,0003.76,0001.73
2021-12-17 03:09:00,,0818.3,5.00,0.00,24.9,23.9,00.0,33.9,26.7,06.6,0000.0,0015.00,0003.67,0001.71
2021-12-17 03:10:00,,0818.3,4.99,0.00,24.9,23.9,00.0,33.9,26.7,06.5,0000.0,0015.43,0003.63,0001.67
2021-12-17 03:11:00,,0818.3,5.02,0.00,24.9,23.9,00.0,33.9,26.6,06.6,0000.0,0015.60,0003.58,0001.64
2021-12-17 03:12:00,,0818.4,4.99,0.00,24.9,23.9,00.0,33.9,26.7,06.5,0000.0,0015.51,0003.55,0001.59
2021-12-17 03:13:00,,0818.4,5.00,0.00,24.9,23.9,00.0,33.8,26.7,06.5,0000.0,0015.31,0003.51,0001.58
2021-12-17 03:14:00,,0818.4,4.99,0.00,24.9,23.9,00.0,33.8,26.7,06.5,0000.0,0015.12,0003.50,0001.56
2021-12-17 03:15:00,,0818.4,5.00,0.00,24.9,23.9,00.0,33.8,26.7,06.5,0000.0,0015.38,0003.52,0001.53
2021-12-17 03:16:00,,0818.4,5.00,0.00,24.9,23.9,00.0,33.8,26.7,06.5,0000.0,0015.40,0003.51,0001.51
2021-12-17 03:17:00,,0818.4,5.00,0.00,24.9,23.9,00.0,33.8,26.7,06.5,0000.0,0014.59,0003.44,0001.48
2021-12-17 03:18:00,,0818.4,4.99,0.00,24.8,23.9,00.0,33.8,26.7,06.6,0000.0,0013.62,0003.37,0001.46
2021-12-17 03:19:00,,0818.4,4.99,0.00,24.9,23.9,00.0,33.8,26.7,06.6,0000.0,0013.59,0003.36,0001.45
2021-12-17 03:20:00,,0818.3,5.01,0.00,24.9,23.9,00.0,33.8,26.7,06.6,0000.0,0013.22,0003.37,0001.44
2021-12-17 03:21:00,,0818.3,4.99,0.00,24.8,23.9,00.0,33.8,26.7,06.6,0000.0,0012.71,0003.38,0001.45
2021-12-17 03:22:00,,0818.3,5.02,0.00,24.8,23.9,00.0,33.8,26.6,06.6,0000.0,0013.16,0003.38,0001.44
2021-12-17 03:23:00,,0818.4,4.98,0.00,24.8,23.9,00.0,33.8,26.6,06.6,0000.0,0012.93,0003.42,0001.45
2021-12-17 03:24:00,,0818.3,5.01,0.00,24.8,23.8,00.0,33.8,26.6,06.6,0000.0,0012.10,0003.42,0001.43
2021-12-17 03:25:00,,0818.3,5.00,0.00,24.8,23.8,00.0,33.8,26.6,06.6,0000.0,0012.17,0003.42,0001.43
2021-12-17 03:26:00,,0818.4,4.99,0.00,24.8,23.8,00.0,33.8,26.6,06.6,0000.0,0012.09,0003.36,0001.43
2021-12-17 03:27:00,,0818.4,4.99,0.00,24.8,23.8,00.0,33.8,26.6,06.5,0000.0,0011.29,0003.36,0001.44
2021-12-17 03:28:00,,0818.4,5.01,0.00,24.8,23.8,00.0,33.8,26.6,06.5,0000.0,0011.17,0003.38,0001.46
2021-12-17 03:29:00,,0818.4,4.99,0.00,24.8,23.8,00.0,33.8,26.5,06.6,0000.0,0012.18,0003.47,0001.46
2021-12-17 03:30:00,,0818.4,5.02,0.00,24.7,23.8,00.0,33.7,26.5,06.6,0000.0,0013.25,0003.51,0001.48
2021-12-17 03:31:00,,0818.3,5.00,0.00,24.7,23.8,00.0,33.7,26.5,06.6,0000.0,0013.81,0003.53,0001.47
2021-12-17 03:32:00,,0818.3,5.00,0.00,24.7,23.7,00.0,33.7,26.4,06.5,0000.0,0013.57,0003.57,0001.47
2021-12-17 03:33:00,,0818.3,5.00,0.00,24.7,23.7,00.0,33.7,26.4,06.6,0000.0,0012.95,0003.65,0001.51
2021-12-17 03:34:00,,0818.3,4.99,0.00,24.6,23.7,00.0,33.7,26.3,06.6,0000.0,0012.44,0003.66,0001.58
2021-12-17 03:35:00,,0818.4,5.01,0.00,24.6,23.6,00.0,33.7,26.2,06.7,0000.0,0012.75,0003.71,0001.64
2021-12-17 03:36:00,,0818.4,4.99,0.00,24.5,23.5,00.0,33.7,26.1,06.7,0000.0,0012.91,0003.76,0001.68
2021-12-17 03:37:00,,0818.4,5.00,0.00,24.4,23.4,00.0,33.6,26.0,06.7,0000.0,0013.43,0003.86,0001.73
2021-12-17 03:38:00,,0818.4,5.00,0.00,24.4,23.4,00.0,33.6,26.0,06.7,0000.0,0013.82,0003.88,0001.76
2021-12-17 03:39:00,,0818.4,4.99,0.00,24.4,23.4,00.0,33.6,26.0,06.7,0000.0,0015.19,0003.91,0001.78
2021-12-17 03:40:00,,0818.4,5.00,0.00,24.4,23.4,00.0,33.6,26.0,06.7,0000.0,0015.46,0003.88,0001.80
2021-12-17 03:41:00,,0818.4,5.00,0.00,24.3,23.4,00.0,33.6,26.0,06.8,0000.0,0015.14,0003.91,0001.82
2021-12-17 03:42:00,,0818.4,5.01,0.00,24.3,23.4,00.0,33.5,26.0,06.8,0000.0,0014.94,0003.95,0001.85
2021-12-17 03:43:00,,0818.4,4.99,0.00,24.3,23.4,00.0,33.5,26.0,06.8,0000.0,0015.17,0003.93,0001.86
2021-12-17 03:44:00,,0818.4,5.00,0.00,24.3,23.4,00.0,33.5,26.0,06.8,0000.0,0015.87,0003.92,0001.84
2021-12-17 03:45:00,,0818.4,4.99,0.00,24.3,23.4,00.0,33.5,26.0,06.8,0000.0,0016.50,0003.87,0001.78
2021-12-17 03:46:00,,0818.4,5.00,0.00,24.3,23.4,00.0,33.4,25.9,06.7,0000.0,0016.46,0003.83,0001.73
2021-12-17 03:47:00,,0818.4,5.00,0.00,24.3,23.4,00.0,33.4,25.9,06.7,0000.0,0017.17,0003.79,0001.74
2021-12-17 03:48:00,,0818.4,4.99,0.00,24.3,23.4,00.0,33.4,25.9,06.7,0000.0,0016.98,0003.75,0001.74
2021-12-17 03:49:00,,0818.4,5.00,0.00,24.3,23.3,00.0,33.4,26.0,06.7,0000.0,0017.36,0003.74,0001.74
2021-12-17 03:50:00,,0818.4,5.00,0.00,24.2,23.4,00.0,33.4,25.9,06.8,0000.0,0016.09,0003.69,0001.74
2021-12-17 03:51:00,,0818.4,5.01,0.00,24.2,23.3,00.0,33.4,25.9,06.8,0000.0,0015.93,0003.67,0001.75
2021-12-17 03:52:00,,0818.4,4.99,0.00,24.2,23.3,00.0,33.3,25.9,06.8,0000.0,0016.53,0003.69,0001.75
2021-12-17 03:53:00,,0818.4,4.99,0.00,24.2,23.3,00.0,33.3,25.9,06.8,0000.0,0016.48,0003.69,0001.75
2021-12-17 03:54:00,,0818.4,5.01,0.00,24.2,23.3,00.0,33.3,25.9,06.8,0000.0,0016.38,0003.67,0001.77
2021-12-17 03:55:00,,0818.4,5.00,0.00,24.1,23.2,00.0,33.3,25.8,06.8,0000.0,0015.79,0003.64,0001.78
2021-12-17 03:56:00,,0818.5,5.01,0.00,24.1,23.2,00.0,33.3,25.7,06.8,0000.0,0016.48,0003.69,0001.81
2021-12-17 03:57:00,,0818.5,5.00,0.00,24.1,23.1,00.0,33.3,25.6,06.9,0000.0,0017.10,0003.72,0001.83
2021-12-17 03:58:00,,0818.5,5.00,0.00,24.0,23.1,00.0,33.2,25.6,06.9,0000.0,0016.25,0003.73,0001.86
2021-12-17 03:59:00,,0818.5,5.01,0.00,24.0,23.0,00.0,33.2,25.5,06.9,0000.0,0016.45,0003.77,0001.86
